Погода в Тиране

Албания     41°19′50″N   19°49′13″E
темп.,
°C
ветер,
м/с
пор.,
м/с
влажн.,
%
обл.,
%
осадки,
мм/ч
давл.,
гПа
погр.,
м
24 июня, чт
чт2423:00+26в22520 0.0 101611
02:00+24сз11565 0.0 101711
05:00+25вюв22485 0.0 101615
08:00+30сз22404 0.0 1016238
11:00+36зсз342515 0.0 1016956
14:00+39ссз341910 0.0 10161451
17:00+34сз462924 0.0 1016467
20:00+27св2252100 0.0 101720
25 июня, пт
пт2523:00+27вюв223858 0.0 101711
02:00+26в223621 0.0 101511
05:00+25в113512 0.0 101411
08:00+32всв00275 0.0 1015184
11:00+36зсз442222 0.0 1015958
14:00+37сз45212 0.0 10151393
17:00+36сз47225 0.0 10141171
20:00+29вюв1138100 0.0 101311
26 июня, сб
сб2623:00+26вюв11380 0.0 101411
02:00+23всв11460 0.0 101411
05:00+24в11400 0.0 101311
08:00+30ююв11320 0.0 1014223
11:00+33зсз43290 0.0 10141145
14:00+33зсз55320 0.0 10131217
17:00+31зсз44350 0.0 1012839
20:00+24сз22630 0.0 101320
27 июня, вс
вс2723:00+21всв11682 0.0 101411
02:00+20всв11680 0.0 101411
05:00+20вюв11570 0.0 101311
08:00+26юз11380 0.0 1014272
11:00+31сз22250 0.0 10131092
14:00+34зсз53220 0.0 10121963
17:00+31зсз44360 0.0 1013792
20:00+24ссз22600 0.0 101312
28 июня, пн
пн2823:00+22вюв11670 0.0 101411
02:00+21всв11650 0.0 101411
05:00+20в11670 0.0 101411
08:00+27зсз104530 0.0 1015284
11:00+33зсз32345 0.0 10141090
14:00+35зсз64270 0.0 10141981
17:00+33сз54290 0.0 1014904
20:00+26с22490 0.0 101412